This is the latest recevied weather packets stored in our database for station/object KD2DXJ. If no packets are shown the sender has not sent any weather packets the latest 10 day(s).
| Time | Temp. | Humidity | Pressure | Rain* | Wind** | Luminosity | Snow |
|---|---|---|---|---|---|---|---|
| 1777729294 | 4.44° C | 96% | 1012.6 hPa | 0 mm | - | 158 W/m² | - |
| 1777728990 | 4.44° C | 96% | 1012.6 hPa | 0 mm | - | 140 W/m² | - |
| 1777728687 | 4.44° C | 97% | 1012.7 hPa | 0 mm | - | 101 W/m² | - |
| 1777728384 | 3.89° C | 96% | 1012.6 hPa | 0 mm | - | 125 W/m² | - |
| 1777728081 | 3.89° C | 97% | 1012.5 hPa | 1.27 mm | - | 131 W/m² | - |
| 1777727778 | 3.89° C | 97% | 1012.7 hPa | 1.27 mm | - | 101 W/m² | - |
| 1777727475 | 4.44° C | 97% | 1012.6 hPa | 0 mm | - | 39 W/m² | - |
| 1777727173 | 4.44° C | 98% | 1012.6 hPa | 0 mm | - | 49 W/m² | - |
| 1777726870 | 4.44° C | 98% | 1012.6 hPa | 0 mm | - | 54 W/m² | - |
| 1777726566 | 4.44° C | 98% | 1012.6 hPa | 0 mm | - | 57 W/m² | - |
| 1777726264 | 4.44° C | 98% | 1012.5 hPa | 0 mm | - | 17 W/m² | - |
| 1777725960 | 4.44° C | 98% | 1012.7 hPa | 0 mm | - | 25 W/m² | - |
| 1777725657 | 4.44° C | 98% | 1012.5 hPa | 0 mm | - | 37 W/m² | - |
| 1777725356 | 4.44° C | 97% | 1012.5 hPa | 1.27 mm | - | 43 W/m² | - |
| 1777725052 | 4.44° C | 97% | 1012.7 hPa | 1.27 mm | - | 53 W/m² | - |
| 1777724749 | 4.44° C | 96% | 1012.4 hPa | 0 mm | - | 30 W/m² | - |
| 1777724446 | 4.44° C | 96% | 1012.5 hPa | 0 mm | - | 23 W/m² | - |
| 1777724143 | 4.44° C | 96% | 1012.4 hPa | 0 mm | - | 22 W/m² | - |
| 1777723841 | 4.44° C | 96% | 1012.1 hPa | 0 mm | - | 31 W/m² | - |
| 1777723537 | 4.44° C | 96% | 1012.2 hPa | 0 mm | - | 39 W/m² | - |
| 1777723234 | 4.44° C | 96% | 1012.1 hPa | 0 mm | - | 37 W/m² | - |
| 1777722932 | 4.44° C | 96% | 1012.2 hPa | 0 mm | - | 24 W/m² | - |
| 1777722627 | 4.44° C | 96% | 1012.1 hPa | 0 mm | - | 25 W/m² | - |
| 1777722324 | 4.44° C | 96% | 1012.1 hPa | 0 mm | - | 27 W/m² | - |
| 1777722021 | 4.44° C | 96% | 1012.2 hPa | 0 mm | - | 23 W/m² | - |
* Rain latest hour (hover to see other rain measurements)
** Current wind speed in m/s (hover to see current wind gust speed)